QPF
0.00 0.00 0.00 0.00 0.00 0.00 0.00 0.00 0.00 0.01 0.01 0.00 0.00 0.00 0.00 0.01 0.01 0.02 0.02 0.03 0.06 0.06 0.05 0.08 0.06 0.08 0.11 0.08 0.07 0.07 0.09 0.10 0.08 0.06 0.04 0.04 0.03 0.02 0.02 0.02 0.02 0.05 0.07 0.04
0.00 0.00 0.00 0.00 0.00 0.00 0.00 0.00 0.00 0.00 0.00 0.00 0.00 0.00 0.00 0.01 0.01 0.02 0.04 0.07 0.07 0.06 0.08 0.08 0.06 0.07 0.06 0.06 0.06 0.06 0.07 0.07 0.06 0.04 0.04 0.04 0.04 0.03 0.03 0.03 0.03 0.03 0.04 0.03
0.00 0.00 0.00 0.00 0.00 0.00 0.00 0.00 0.00 0.00 0.00 0.00 0.00 0.01 0.01 0.01 0.01 0.02 0.03 0.04 0.06 0.08 0.10 0.14 0.10 0.09 0.08 0.09 0.07 0.05 0.06 0.07 0.06 0.05 0.06 0.07 0.07 0.07 0.07 0.06 0.04 0.02 0.02 0.02
0.00 0.00 0.00 0.00 0.00 0.00 0.00 0.00 0.00 0.00 0.00 0.01 0.00 0.01 0.02 0.01 0.02 0.03 0.04 0.05 0.07 0.10 0.11 0.11 0.08 0.08 0.07 0.09 0.09 0.08 0.08 0.08 0.08 0.08 0.08 0.08 0.06 0.05 0.04 0.04 0.05 0.03 0.01 0.02
0.00 0.00 0.00 0.00 0.00 0.00 0.00 0.00 0.00 0.00 0.00 0.00 0.01 0.01 0.02 0.04 0.04 0.04 0.05 0.07 0.06 0.10 0.13 0.11 0.08 0.08 0.07 0.07 0.08 0.10 0.11 0.09 0.07 0.06 0.07 0.10 0.09 0.06 0.05 0.05 0.05 0.03 0.02 0.01
0.00 0.00 0.00 0.00 0.00 0.00 0.00 0.00 0.00 0.00 0.00 0.00 0.01 0.03 0.04 0.05 0.05 0.03 0.04 0.04 0.04 0.06 0.09 0.11 0.09 0.10 0.09 0.07 0.07 0.09 0.09 0.06 0.05 0.05 0.07 0.09 0.10 0.08 0.07 0.05 0.05 0.05 0.04 0.02
0.00 0.00 0.00 0.00 0.00 0.00 0.00 0.00 0.00 0.00 0.01 0.01 0.01 0.02 0.03 0.05 0.05 0.05 0.06 0.05 0.06 0.06 0.06 0.08 0.08 0.10 0.12 0.10 0.07 0.06 0.05 0.05 0.04 0.04 0.05 0.07 0.08 0.08 0.07 0.06 0.07 0.07 0.05 0.02
0.00 0.00 0.00 0.00 0.00 0.00 0.00 0.00 0.00 0.01 0.01 0.02 0.02 0.04 0.04 0.06 0.06 0.06 0.06 0.07 0.09 0.08 0.05 0.06 0.09 0.10 0.11 0.10 0.07 0.06 0.05 0.04 0.05 0.04 0.05 0.06 0.06 0.07 0.07 0.07 0.07 0.05 0.05 0.04
0.00 0.00 0.00 0.00 0.00 0.00 0.00 0.00 0.00 0.00 0.01 0.05 0.06 0.08 0.07 0.09 0.07 0.06 0.07 0.08 0.09 0.10 0.09 0.07 0.08 0.10 0.10 0.11 0.07 0.05 0.06 0.05 0.05 0.05 0.06 0.05 0.05 0.05 0.06 0.05 0.05 0.04 0.04 0.04
0.00 0.00 0.00 0.00 0.00 0.00 0.00 0.00 0.00 0.00 0.02 0.07 0.08 0.12 0.15 0.16 0.16 0.12 0.08 0.08 0.08 0.09 0.10 0.11 0.10 0.09 0.08 0.10 0.11 0.06 0.06 0.05 0.05 0.05 0.05 0.04 0.04 0.03 0.04 0.05 0.03 0.02 0.03 0.03
0.00 0.00 0.00 0.00 0.00 0.00 0.00 0.00 0.00 0.00 0.01 0.06 0.08 0.08 0.10 0.11 0.17 0.20 0.13 0.09 0.10 0.12 0.10 0.10 0.13 0.12 0.08 0.08 0.13 0.08 0.05 0.05 0.05 0.05 0.05 0.04 0.03 0.03 0.04 0.04 0.02 0.02 0.02 0.03
0.00 0.00 0.00 0.01 0.01 0.00 0.00 0.00 0.00 0.01 0.01 0.02 0.05 0.06 0.05 0.08 0.12 0.14 0.15 0.10 0.10 0.12 0.10 0.08 0.10 0.11 0.09 0.09 0.11 0.06 0.05 0.04 0.05 0.05 0.05 0.04 0.03 0.03 0.05 0.04 0.03 0.02 0.02 0.02
0.00 0.00 0.01 0.01 0.01 0.01 0.01 0.01 0.00 0.00 0.01 0.02 0.03 0.05 0.08 0.09 0.13 0.13 0.13 0.08 0.09 0.13 0.13 0.09 0.12 0.14 0.11 0.10 0.06 0.03 0.03 0.03 0.04 0.04 0.04 0.04 0.03 0.03 0.05 0.05 0.05 0.05 0.03 0.03
0.01 0.01 0.01 0.01 0.01 0.01 0.01 0.00 0.00 0.00 0.01 0.02 0.02 0.04 0.06 0.12 0.12 0.13 0.09 0.07 0.08 0.08 0.12 0.10 0.13 0.21 0.20 0.08 0.04 0.02 0.02 0.03 0.03 0.03 0.04 0.04 0.03 0.03 0.05 0.07 0.06 0.05 0.04 0.04
0.01 0.00 0.00 0.01 0.01 0.01 0.01 0.00 0.00 0.01 0.02 0.04 0.03 0.02 0.07 0.18 0.11 0.11 0.10 0.08 0.09 0.10 0.07 0.07 0.08 0.14 0.18 0.13 0.11 0.06 0.04 0.04 0.04 0.05 0.04 0.03 0.04 0.05 0.07 0.08 0.07 0.05 0.04 0.03
0.01 0.01 0.01 0.01 0.01 0.01 0.01 0.00 0.00 0.01 0.02 0.03 0.03 0.03 0.07 0.09 0.11 0.12 0.13 0.11 0.14 0.13 0.08 0.07 0.06 0.06 0.09 0.12 0.14 0.11 0.07 0.07 0.07 0.05 0.03 0.04 0.06 0.06 0.06 0.06 0.05 0.04 0.03 0.03
0.02 0.02 0.02 0.02 0.01 0.01 0.02 0.01 0.01 0.02 0.02 0.02 0.03 0.07 0.09 0.08 0.10 0.13 0.12 0.11 0.13 0.07 0.06 0.06 0.06 0.05 0.05 0.08 0.13 0.18 0.14 0.09 0.08 0.06 0.06 0.06 0.05 0.04 0.05 0.06 0.06 0.03 0.03 0.04
0.02 0.02 0.02 0.03 0.03 0.04 0.04 0.04 0.05 0.06 0.06 0.04 0.04 0.04 0.05 0.05 0.11 0.18 0.17 0.14 0.10 0.06 0.06 0.07 0.07 0.06 0.05 0.04 0.05 0.09 0.13 0.13 0.10 0.07 0.05 0.04 0.04 0.03 0.04 0.05 0.05 0.03 0.04 0.05
0.03 0.03 0.03 0.04 0.04 0.04 0.05 0.05 0.08 0.08 0.07 0.06 0.05 0.04 0.06 0.11 0.11 0.15 0.14 0.12 0.09 0.08 0.07 0.10 0.10 0.07 0.08 0.07 0.06 0.10 0.13 0.11 0.10 0.08 0.09 0.06 0.04 0.03 0.04 0.04 0.04 0.04 0.05 0.05
0.03 0.03 0.04 0.04 0.05 0.05 0.05 0.04 0.05 0.06 0.10 0.09 0.08 0.06 0.06 0.10 0.09 0.10 0.11 0.15 0.13 0.09 0.06 0.07 0.07 0.06 0.05 0.07 0.10 0.11 0.14 0.17 0.13 0.09 0.09 0.10 0.08 0.07 0.06 0.06 0.06 0.08 0.08 0.08
0.09 0.06 0.05 0.05 0.05 0.06 0.05 0.05 0.06 0.10 0.13 0.09 0.08 0.07 0.07 0.05 0.04 0.06 0.09 0.10 0.11 0.11 0.10 0.09 0.08 0.06 0.07 0.06 0.08 0.12 0.12 0.13 0.14 0.13 0.11 0.12 0.13 0.12 0.12 0.12 0.14 0.15 0.14 0.13
0.12 0.11 0.08 0.07 0.08 0.07 0.05 0.06 0.11 0.16 0.11 0.09 0.08 0.06 0.04 0.03 0.04 0.05 0.06 0.04 0.04 0.06 0.10 0.12 0.12 0.11 0.08 0.07 0.07 0.08 0.08 0.08 0.09 0.10 0.12 0.12 0.13 0.15 0.16 0.19 0.21 0.19 0.17 0.15
0.12 0.12 0.11 0.10 0.09 0.07 0.07 0.08 0.10 0.16 0.12 0.09 0.08 0.07 0.04 0.03 0.03 0.05 0.06 0.05 0.03 0.03 0.04 0.07 0.11 0.12 0.11 0.10 0.09 0.09 0.09 0.06 0.06 0.08 0.11 0.14 0.17 0.21 0.22 0.22 0.22 0.21 0.19 0.16
0.14 0.16 0.17 0.13 0.12 0.10 0.09 0.10 0.11 0.13 0.14 0.11 0.09 0.08 0.06 0.06 0.04 0.03 0.04 0.05 0.05 0.04 0.03 0.02 0.05 0.09 0.12 0.13 0.12 0.11 0.09 0.10 0.10 0.11 0.13 0.15 0.19 0.23 0.24 0.22 0.21 0.21 0.21 0.18
0.17 0.20 0.24 0.21 0.17 0.12 0.08 0.08 0.07 0.07 0.07 0.06 0.08 0.09 0.09 0.12 0.09 0.06 0.05 0.05 0.06 0.06 0.05 0.05 0.05 0.07 0.09 0.09 0.11 0.14 0.15 0.14 0.13 0.14 0.17 0.15 0.13 0.15 0.21 0.22 0.23 0.24 0.24 0.22
0.24 0.20 0.24 0.24 0.19 0.13 0.08 0.05 0.05 0.03 0.02 0.02 0.05 0.10 0.07 0.06 0.06 0.08 0.07 0.07 0.07 0.05 0.06 0.07 0.08 0.09 0.10 0.09 0.09 0.08 0.09 0.10 0.12 0.12 0.14 0.15 0.14 0.16 0.17 0.16 0.17 0.20 0.21 0.20
MSLP
1006.51 1007.28 1007.78 1007.98 1007.94 1007.74 1007.46 1007.19 1006.99 1006.86 1006.80 1006.76 1006.71 1006.60 1006.41 1006.16 1005.88 1005.61 1005.41 1005.31 1005.35 1005.51 1005.79 1006.14 1006.54 1006.95 1007.36 1007.76 1008.16 1008.58 1009.04 1009.54 1010.06 1010.60 1011.11 1011.58 1011.98 1012.30 1012.55 1012.76 1012.96 1013.17 1013.44 1013.77
1006.74 1007.30 1007.55 1007.55 1007.37 1007.13 1006.93 1006.83 1006.88 1007.03 1007.24 1007.42 1007.49 1007.42 1007.19 1006.83 1006.40 1005.99 1005.66 1005.49 1005.49 1005.65 1005.95 1006.31 1006.70 1007.07 1007.40 1007.71 1008.02 1008.37 1008.79 1009.29 1009.87 1010.48 1011.10 1011.66 1012.13 1012.48 1012.72 1012.89 1013.02 1013.18 1013.39 1013.69
1006.68 1007.04 1007.08 1006.91 1006.64 1006.42 1006.34 1006.48 1006.80 1007.26 1007.74 1008.12 1008.32 1008.26 1007.96 1007.46 1006.87 1006.30 1005.85 1005.60 1005.57 1005.74 1006.07 1006.46 1006.86 1007.20 1007.48 1007.71 1007.93 1008.20 1008.57 1009.06 1009.66 1010.34 1011.04 1011.69 1012.23 1012.63 1012.89 1013.04 1013.14 1013.24 1013.41 1013.67
1006.37 1006.54 1006.42 1006.15 1005.87 1005.74 1005.85 1006.25 1006.88 1007.64 1008.37 1008.93 1009.20 1009.13 1008.72 1008.06 1007.28 1006.53 1005.95 1005.61 1005.55 1005.74 1006.10 1006.54 1006.96 1007.31 1007.54 1007.70 1007.84 1008.02 1008.32 1008.77 1009.38 1010.10 1010.86 1011.59 1012.22 1012.69 1012.99 1013.15 1013.24 1013.31 1013.45 1013.68
1005.89 1005.91 1005.70 1005.40 1005.19 1005.21 1005.56 1006.24 1007.18 1008.21 1009.15 1009.84 1010.15 1010.01 1009.47 1008.62 1007.64 1006.70 1005.97 1005.54 1005.44 1005.64 1006.04 1006.53 1006.98 1007.33 1007.54 1007.63 1007.68 1007.77 1007.99 1008.39 1008.97 1009.70 1010.52 1011.32 1012.03 1012.57 1012.94 1013.15 1013.27 1013.34 1013.46 1013.68
1005.30 1005.23 1004.99 1004.75 1004.67 1004.90 1005.51 1006.48 1007.69 1008.95 1010.06 1010.83 1011.12 1010.89 1010.18 1009.13 1007.95 1006.83 1005.95 1005.43 1005.28 1005.48 1005.91 1006.43 1006.92 1007.27 1007.45 1007.49 1007.45 1007.45 1007.58 1007.90 1008.43 1009.16 1010.00 1010.86 1011.65 1012.29 1012.74 1013.03 1013.19 1013.30 1013.44 1013.65
1004.69 1004.57 1004.37 1004.23 1004.33 1004.80 1005.66 1006.89 1008.32 1009.76 1010.97 1011.77 1012.01 1011.67 1010.80 1009.58 1008.21 1006.93 1005.92 1005.31 1005.12 1005.31 1005.75 1006.30 1006.79 1007.14 1007.29 1007.28 1007.17 1007.07 1007.10 1007.34 1007.82 1008.52 1009.36 1010.27 1011.12 1011.85 1012.40 1012.78 1013.02 1013.19 1013.36 1013.58
1004.07 1003.96 1003.82 1003.83 1004.13 1004.81 1005.90 1007.33 1008.92 1010.47 1011.72 1012.50 1012.67 1012.23 1011.24 1009.88 1008.38 1006.99 1005.90 1005.22 1005.00 1005.17 1005.61 1006.16 1006.65 1006.99 1007.11 1007.05 1006.87 1006.70 1006.64 1006.80 1007.21 1007.87 1008.70 1009.62 1010.53 1011.33 1011.97 1012.45 1012.77 1013.01 1013.24 1013.50
1003.45 1003.36 1003.32 1003.47 1003.94 1004.81 1006.06 1007.62 1009.29 1010.86 1012.11 1012.84 1012.95 1012.44 1011.38 1009.96 1008.42 1006.99 1005.87 1005.18 1004.94 1005.10 1005.53 1006.06 1006.54 1006.86 1006.96 1006.86 1006.63 1006.40 1006.28 1006.37 1006.72 1007.32 1008.12 1009.04 1009.98 1010.83 1011.54 1012.09 1012.50 1012.82 1013.10 1013.40
1002.80 1002.75 1002.80 1003.07 1003.68 1004.66 1006.00 1007.59 1009.26 1010.79 1011.98 1012.65 1012.72 1012.19 1011.14 1009.75 1008.26 1006.89 1005.82 1005.16 1004.94 1005.10 1005.51 1006.02 1006.48 1006.78 1006.86 1006.74 1006.50 1006.24 1006.08 1006.12 1006.42 1006.97 1007.73 1008.62 1009.55 1010.42 1011.17 1011.77 1012.24 1012.62 1012.95 1013.29
1002.12 1002.09 1002.22 1002.58 1003.26 1004.28 1005.61 1007.15 1008.73 1010.16 1011.26 1011.87 1011.92 1011.43 1010.47 1009.22 1007.87 1006.65 1005.70 1005.14 1004.96 1005.14 1005.54 1006.03 1006.46 1006.74 1006.82 1006.71 1006.49 1006.24 1006.08 1006.11 1006.37 1006.87 1007.57 1008.41 1009.30 1010.15 1010.90 1011.52 1012.02 1012.43 1012.80 1013.17
1001.41 1001.42 1001.60 1002.00 1002.69 1003.68 1004.92 1006.33 1007.76 1009.04 1010.01 1010.57 1010.64 1010.23 1009.44 1008.39 1007.28 1006.27 1005.50 1005.07 1004.97 1005.17 1005.57 1006.03 1006.44 1006.72 1006.82 1006.75 1006.57 1006.38 1006.26 1006.30 1006.54 1007.00 1007.65 1008.41 1009.22 1010.01 1010.72 1011.32 1011.82 1012.25 1012.63 1013.02
1000.75 1000.79 1000.99 1001.41 1002.06 1002.96 1004.05 1005.27 1006.49 1007.58 1008.42 1008.92 1009.02 1008.74 1008.15 1007.36 1006.52 1005.77 1005.22 1004.94 1004.93 1005.16 1005.55 1005.99 1006.38 1006.66 1006.79 1006.79 1006.69 1006.59 1006.54 1006.62 1006.87 1007.30 1007.88 1008.56 1009.28 1009.98 1010.61 1011.17 1011.64 1012.05 1012.44 1012.84
1000.21 1000.29 1000.51 1000.91 1001.50 1002.26 1003.17 1004.16 1005.14 1006.03 1006.72 1007.15 1007.29 1007.15 1006.77 1006.25 1005.70 1005.21 1004.87 1004.74 1004.81 1005.07 1005.44 1005.85 1006.22 1006.51 1006.69 1006.77 1006.78 1006.78 1006.83 1006.98 1007.26 1007.66 1008.18 1008.77 1009.38 1009.98 1010.52 1011.01 1011.44 1011.83 1012.21 1012.61
999.89 1000.00 1000.24 1000.62 1001.12 1001.74 1002.44 1003.20 1003.94 1004.61 1005.15 1005.52 1005.68 1005.66 1005.48 1005.21 1004.91 1004.66 1004.51 1004.50 1004.63 1004.89 1005.23 1005.60 1005.95 1006.24 1006.47 1006.63 1006.76 1006.88 1007.04 1007.27 1007.59 1007.98 1008.45 1008.95 1009.46 1009.96 1010.41 1010.82 1011.21 1011.57 1011.94 1012.34
999.85 1000.01 1000.26 1000.60 1001.02 1001.49 1002.00 1002.53 1003.04 1003.51 1003.90 1004.20 1004.38 1004.45 1004.43 1004.36 1004.27 1004.20 1004.19 1004.27 1004.42 1004.66 1004.95 1005.26 1005.57 1005.87 1006.13 1006.37 1006.61 1006.85 1007.11 1007.42 1007.78 1008.18 1008.60 1009.04 1009.47 1009.87 1010.25 1010.60 1010.94 1011.29 1011.65 1012.05
1000.10 1000.29 1000.56 1000.88 1001.21 1001.56 1001.90 1002.22 1002.53 1002.82 1003.07 1003.29 1003.47 1003.61 1003.70 1003.77 1003.83 1003.90 1003.98 1004.09 1004.24 1004.43 1004.65 1004.89 1005.16 1005.43 1005.72 1006.01 1006.33 1006.66 1007.02 1007.40 1007.80 1008.20 1008.60 1008.99 1009.36 1009.70 1010.02 1010.34 1010.66 1010.99 1011.35 1011.75
1000.59 1000.81 1001.09 1001.37 1001.64 1001.87 1002.07 1002.23 1002.38 1002.52 1002.66 1002.82 1002.98 1003.16 1003.33 1003.50 1003.65 1003.80 1003.92 1004.04 1004.16 1004.28 1004.42 1004.58 1004.78 1005.02 1005.29 1005.61 1005.97 1006.37 1006.78 1007.21 1007.63 1008.04 1008.43 1008.79 1009.13 1009.44 1009.74 1010.05 1010.37 1010.70 1011.07 1011.47
1001.23 1001.45 1001.70 1001.95 1002.16 1002.30 1002.39 1002.44 1002.47 1002.51 1002.58 1002.69 1002.85 1003.04 1003.27 1003.50 1003.72 1003.90 1004.05 1004.16 1004.23 1004.28 1004.33 1004.41 1004.53 1004.71 1004.95 1005.25 1005.61 1006.02 1006.45 1006.89 1007.32 1007.72 1008.10 1008.46 1008.78 1009.10 1009.41 1009.73 1010.07 1010.42 1010.80 1011.20
1001.88 1002.07 1002.29 1002.49 1002.63 1002.71 1002.73 1002.71 1002.67 1002.65 1002.69 1002.79 1002.95 1003.18 1003.45 1003.73 1003.99 1004.21 1004.36 1004.45 1004.48 1004.47 1004.45 1004.44 1004.48 1004.58 1004.75 1005.00 1005.31 1005.68 1006.07 1006.48 1006.89 1007.28 1007.64 1007.99 1008.33 1008.67 1009.01 1009.37 1009.74 1010.13 1010.52 1010.91
1002.44 1002.58 1002.73 1002.87 1002.96 1003.00 1002.97 1002.92 1002.87 1002.85 1002.89 1003.01 1003.21 1003.49 1003.80 1004.13 1004.43 1004.67 1004.84 1004.92 1004.93 1004.87 1004.79 1004.70 1004.65 1004.66 1004.74 1004.89 1005.11 1005.39 1005.71 1006.04 1006.39 1006.73 1007.07 1007.42 1007.77 1008.14 1008.53 1008.94 1009.36 1009.79 1010.20 1010.59
1002.85 1002.90 1002.98 1003.06 1003.10 1003.11 1003.08 1003.04 1003.02 1003.04 1003.13 1003.31 1003.57 1003.90 1004.28 1004.66 1005.00 1005.28 1005.46 1005.55 1005.55 1005.46 1005.33 1005.18 1005.05 1004.96 1004.92 1004.95 1005.04 1005.19 1005.38 1005.60 1005.85 1006.12 1006.42 1006.75 1007.11 1007.51 1007.95 1008.42 1008.89 1009.36 1009.80 1010.19
1003.07 1003.03 1003.04 1003.07 1003.08 1003.09 1003.09 1003.10 1003.14 1003.24 1003.41 1003.67 1004.01 1004.42 1004.85 1005.29 1005.68 1005.99 1006.20 1006.31 1006.30 1006.21 1006.04 1005.84 1005.63 1005.43 1005.27 1005.16 1005.10 1005.08 1005.11 1005.19 1005.31 1005.48 1005.71 1006.00 1006.36 1006.79 1007.27 1007.79 1008.32 1008.84 1009.31 1009.73
1003.12 1003.02 1002.97 1002.96 1002.98 1003.01 1003.07 1003.16 1003.30 1003.50 1003.78 1004.14 1004.57 1005.04 1005.54 1006.02 1006.44 1006.79 1007.03 1007.15 1007.15 1007.05 1006.86 1006.62 1006.34 1006.05 1005.76 1005.50 1005.27 1005.08 1004.94 1004.85 1004.82 1004.87 1005.01 1005.25 1005.58 1006.02 1006.53 1007.09 1007.68 1008.25 1008.77 1009.22
1003.07 1002.92 1002.85 1002.84 1002.88 1002.97 1003.11 1003.31 1003.57 1003.89 1004.29 1004.75 1005.26 1005.79 1006.34 1006.85 1007.30 1007.65 1007.90 1008.04 1008.05 1007.94 1007.74 1007.46 1007.12 1006.75 1006.36 1005.96 1005.57 1005.21 1004.89 1004.63 1004.46 1004.38 1004.41 1004.58 1004.87 1005.30 1005.82 1006.42 1007.05 1007.67 1008.25 1008.74
1002.96 1002.81 1002.74 1002.76 1002.87 1003.05 1003.30 1003.62 1004.01 1004.46 1004.97 1005.52 1006.10 1006.68 1007.25 1007.77 1008.21 1008.57 1008.81 1008.94 1008.95 1008.84 1008.63 1008.33 1007.95 1007.51 1007.04 1006.53 1006.01 1005.51 1005.04 1004.63 1004.31 1004.11 1004.04 1004.13 1004.37 1004.76 1005.28 1005.89 1006.56 1007.22 1007.85 1008.40
Thickness
5771 5756 5750 5758 5763 5765 5765 5762 5761 5778 5799 5794 5788 5790 5798 5805 5803 5799 5796 5795 5793 5792 5793 5791 5788 5784 5778 5773 5770 5767 5763 5760 5758 5754 5751 5749 5749 5750 5749 5750 5750 5750 5748 5748
5751 5749 5766 5772 5773 5769 5765 5758 5761 5777 5796 5791 5783 5786 5796 5799 5799 5800 5796 5793 5792 5789 5785 5783 5782 5781 5778 5773 5770 5767 5763 5759 5758 5755 5752 5751 5749 5748 5748 5748 5748 5748 5747 5746
5743 5760 5773 5769 5765 5762 5761 5758 5762 5768 5782 5787 5780 5769 5780 5792 5797 5798 5797 5797 5795 5791 5785 5781 5779 5778 5776 5772 5770 5768 5762 5759 5756 5754 5751 5748 5746 5744 5743 5743 5744 5746 5746 5746
5747 5765 5767 5762 5762 5763 5754 5777 5778 5776 5762 5752 5766 5739 5763 5777 5783 5789 5791 5791 5791 5790 5787 5782 5779 5776 5775 5773 5771 5767 5762 5758 5755 5753 5750 5746 5743 5740 5741 5742 5742 5743 5744 5744
5746 5762 5760 5758 5768 5772 5768 5785 5780 5775 5761 5747 5751 5739 5748 5768 5769 5778 5786 5790 5790 5789 5787 5783 5780 5777 5775 5773 5769 5765 5760 5757 5754 5752 5750 5746 5743 5742 5741 5740 5739 5739 5741 5742
5752 5769 5769 5770 5781 5783 5783 5777 5768 5755 5741 5722 5738 5734 5736 5754 5767 5777 5785 5788 5789 5788 5787 5783 5780 5775 5771 5769 5767 5763 5758 5754 5753 5751 5749 5745 5742 5740 5738 5737 5736 5737 5738 5739
5737 5754 5771 5779 5767 5774 5771 5744 5718 5715 5706 5712 5738 5736 5738 5764 5778 5781 5783 5785 5787 5786 5784 5780 5775 5770 5767 5766 5764 5760 5756 5753 5752 5750 5747 5745 5742 5740 5738 5737 5736 5735 5735 5735
5714 5725 5758 5771 5766 5758 5759 5744 5713 5701 5701 5711 5731 5729 5747 5773 5781 5784 5784 5785 5785 5782 5781 5779 5776 5773 5769 5767 5763 5759 5755 5752 5751 5749 5746 5744 5742 5740 5739 5738 5737 5736 5736 5736
5716 5725 5766 5778 5783 5772 5756 5744 5746 5721 5714 5708 5716 5733 5753 5770 5772 5776 5779 5780 5779 5778 5778 5776 5774 5772 5770 5766 5763 5760 5756 5752 5750 5748 5745 5743 5741 5739 5737 5737 5737 5736 5736 5736
5732 5725 5753 5773 5778 5775 5768 5757 5732 5714 5698 5695 5710 5720 5728 5748 5757 5767 5770 5772 5773 5774 5774 5772 5769 5769 5768 5767 5764 5760 5757 5753 5750 5747 5745 5743 5740 5739 5737 5736 5735 5735 5735 5735
5737 5722 5736 5750 5748 5748 5754 5747 5733 5718 5714 5697 5693 5713 5751 5753 5760 5763 5766 5770 5771 5771 5772 5769 5766 5765 5764 5763 5760 5757 5755 5751 5748 5746 5744 5742 5739 5738 5736 5735 5735 5735 5734 5733
5733 5718 5713 5733 5758 5771 5760 5750 5734 5714 5708 5708 5701 5715 5762 5761 5765 5766 5767 5769 5770 5772 5772 5770 5765 5762 5760 5758 5757 5755 5753 5750 5748 5746 5743 5740 5739 5736 5735 5734 5734 5734 5733 5732
5730 5712 5699 5709 5729 5750 5751 5752 5745 5731 5715 5705 5700 5718 5757 5759 5762 5766 5767 5766 5767 5767 5766 5765 5763 5761 5759 5758 5756 5755 5753 5750 5748 5745 5741 5738 5737 5735 5734 5734 5733 5732 5731 5730
5737 5711 5704 5700 5713 5733 5738 5746 5746 5729 5710 5708 5714 5725 5740 5748 5754 5759 5763 5765 5764 5763 5763 5762 5759 5759 5758 5757 5756 5754 5752 5750 5747 5744 5741 5738 5737 5736 5735 5734 5732 5731 5730 5728
5722 5707 5714 5723 5736 5741 5741 5743 5745 5735 5728 5720 5725 5729 5739 5747 5753 5758 5762 5762 5761 5760 5760 5760 5758 5757 5756 5755 5754 5753 5751 5749 5748 5744 5741 5739 5738 5736 5734 5732 5731 5729 5728 5728
5707 5702 5709 5717 5734 5738 5736 5740 5742 5740 5739 5734 5733 5732 5750 5754 5755 5755 5757 5758 5757 5756 5757 5758 5757 5756 5755 5755 5754 5752 5750 5748 5747 5744 5742 5740 5737 5735 5733 5732 5730 5728 5727 5727
5694 5694 5691 5695 5717 5723 5713 5726 5732 5733 5737 5736 5727 5733 5744 5744 5746 5748 5751 5753 5753 5756 5756 5756 5756 5756 5756 5755 5754 5752 5751 5749 5746 5743 5741 5739 5737 5735 5733 5732 5729 5728 5726 5725
5688 5686 5682 5684 5697 5687 5707 5732 5737 5730 5730 5736 5737 5739 5742 5744 5746 5748 5750 5749 5749 5753 5754 5754 5755 5755 5755 5755 5754 5752 5751 5748 5746 5743 5742 5740 5738 5735 5733 5732 5730 5729 5727 5725
5691 5684 5676 5673 5676 5687 5707 5722 5727 5721 5714 5727 5732 5735 5737 5740 5740 5739 5746 5748 5749 5752 5754 5755 5756 5755 5753 5752 5752 5750 5748 5746 5744 5743 5742 5741 5739 5736 5734 5732 5731 5729 5727 5725
5685 5684 5674 5670 5671 5672 5696 5719 5729 5722 5702 5720 5726 5728 5730 5731 5718 5723 5738 5743 5745 5748 5750 5751 5751 5750 5749 5748 5748 5745 5744 5743 5742 5743 5742 5742 5740 5738 5736 5734 5732 5729 5727 5724
5666 5667 5665 5666 5669 5679 5704 5717 5722 5697 5696 5715 5720 5723 5724 5720 5720 5725 5733 5736 5740 5743 5746 5747 5746 5744 5745 5745 5744 5741 5741 5741 5743 5743 5742 5741 5740 5738 5737 5734 5731 5728 5725 5722
5655 5656 5659 5662 5661 5671 5702 5708 5701 5699 5708 5713 5715 5717 5718 5718 5720 5723 5725 5728 5731 5734 5737 5739 5738 5738 5740 5741 5740 5738 5739 5742 5742 5742 5739 5738 5738 5737 5734 5731 5728 5726 5723 5718
5651 5656 5659 5663 5667 5683 5696 5699 5700 5703 5704 5706 5709 5712 5713 5712 5713 5715 5717 5719 5722 5724 5727 5730 5730 5729 5731 5734 5734 5733 5736 5738 5739 5737 5736 5735 5734 5732 5731 5728 5724 5721 5719 5715
5650 5657 5659 5661 5669 5679 5687 5693 5695 5698 5700 5703 5705 5707 5707 5705 5707 5708 5710 5712 5714 5716 5718 5721 5722 5722 5724 5726 5728 5729 5731 5732 5733 5732 5731 5730 5729 5727 5725 5723 5721 5718 5715 5711
5644 5650 5652 5654 5662 5670 5678 5684 5686 5690 5695 5697 5698 5700 5700 5700 5700 5701 5701 5702 5704 5706 5710 5713 5714 5715 5716 5719 5720 5723 5725 5726 5726 5726 5726 5725 5724 5722 5719 5717 5715 5715 5714 5712
5642 5645 5646 5649 5659 5662 5667 5676 5681 5682 5683 5686 5688 5688 5690 5692 5692 5692 5692 5693 5696 5698 5702 5704 5706 5708 5709 5712 5714 5717 5719 5721 5720 5719 5719 5718 5717 5715 5713 5710 5707 5706 5706 5706